This is the latest recevied weather packets stored in our database for station/object DC7RY. If no packets are shown the sender has not sent any weather packets the latest 10 day(s).
| Time | Temp. | Humidity | Pressure | Rain* | Wind** | Luminosity | Snow |
|---|---|---|---|---|---|---|---|
| 1777832423 | 20.56° C | 47% | 1006.8 hPa | 0 mm | - | 6 W/m² | - |
| 1777831830 | 21.11° C | 46% | 1006.6 hPa | 0 mm | - | 13 W/m² | - |
| 1777831220 | 21.11° C | 45% | 1006.6 hPa | 0 mm | - | 18 W/m² | - |
| 1777830622 | 21.67° C | 44% | 1006.5 hPa | 0 mm | - | 28 W/m² | - |
| 1777830029 | 21.67° C | 44% | 1006.5 hPa | 0 mm | - | 31 W/m² | - |
| 1777829418 | 22.22° C | 43% | 1006.7 hPa | 0 mm | - | 34 W/m² | - |
| 1777828823 | 22.22° C | 43% | 1006.7 hPa | 0 mm | - | 38 W/m² | - |
| 1777828230 | 22.78° C | 40% | 1006.7 hPa | 0 mm | - | 44 W/m² | - |
| 1777827620 | 22.78° C | 42% | 1006.8 hPa | 0 mm | - | 50 W/m² | - |
| 1777827025 | 23.33° C | 40% | 1006.9 hPa | 0 mm | - | 64 W/m² | - |
| 1777826416 | 23.89° C | 39% | 1006.9 hPa | 0 mm | - | 94 W/m² | - |
| 1777825824 | 24.44° C | 38% | 1007 hPa | 0 mm | - | 109 W/m² | - |
| 1777825231 | 23.89° C | 37% | 1007 hPa | 0 mm | - | 182 W/m² | - |
| 1777824622 | 23.89° C | 37% | 1007 hPa | 0 mm | - | 195 W/m² | - |
| 1777824030 | 23.89° C | 38% | 1006.9 hPa | 0 mm | - | 162 W/m² | - |
| 1777823422 | 24.44° C | 37% | 1007 hPa | 0 mm | - | 137 W/m² | - |
| 1777822828 | 25° C | 38% | 1007.2 hPa | 0 mm | - | 160 W/m² | - |
| 1777822218 | 25.56° C | 38% | 1007.1 hPa | 0 mm | - | 151 W/m² | - |
| 1777821625 | 25.56° C | 35% | 1007 hPa | 0 mm | - | 166 W/m² | - |
| 1777821017 | 25.56° C | 35% | 1007 hPa | 0 mm | - | 256 W/m² | - |
| 1777820425 | 25.56° C | 35% | 1007.3 hPa | 0 mm | - | 171 W/m² | - |
| 1777819817 | 26.11° C | 34% | 1007.4 hPa | 0 mm | - | 177 W/m² | - |
| 1777819225 | 26.67° C | 35% | 1007.6 hPa | 0 mm | - | 215 W/m² | - |
| 1777818617 | 27.22° C | 34% | 1007.7 hPa | 0 mm | - | 223 W/m² | - |
| 1777818025 | 28.33° C | 33% | 1007.8 hPa | 0 mm | - | 198 W/m² | - |
* Rain latest hour (hover to see other rain measurements)
** Current wind speed in m/s (hover to see current wind gust speed)